owner,sensor,date,latitude,longitude,vertical_datum,direction_of_sea_water_velocity,sea_water_speed,upward_sea_water_velocity,qcFlag 
TABS,ioos:station:wmo:42050:1,2003-03-01T00:00:00Z,28.8425,-94.2433,2.0,258.0160243,6.839042331,-99999.0,'11133222,11111222,99999999' 
TABS,ioos:station:wmo:42050:1,2003-03-01T00:30:00Z,28.8425,-94.2433,2.0,285.7755829,6.473831941,-99999.0,'11133222,11111222,99999999' 
TABS,ioos:station:wmo:42050:1,2003-03-01T01:00:00Z,28.8425,-94.2433,2.0,299.9496873,5.909052377,-99999.0,'11133222,11111222,99999999' 
TABS,ioos:station:wmo:42050:1,2003-03-01T01:30:00Z,28.8425,-94.2433,2.0,288.8657533,7.577031081,-99999.0,'11133222,11111222,99999999' 
TABS,ioos:station:wmo:42050:1,2003-03-01T02:00:00Z,28.8425,-94.2433,2.0,295.2014856,7.139551807,-99999.0,'11133222,11111222,99999999' 
TABS,ioos:station:wmo:42050:1,2003-03-01T02:30:00Z,28.8425,-94.2433,2.0,313.901368,8.479770044,-99999.0,'11133222,11111222,99999999' 
TABS,ioos:station:wmo:42050:1,2003-03-01T03:00:00Z,28.8425,-94.2433,2.0,323.9253505,6.198596615,-99999.0,'11133222,11111222,99999999' 
TABS,ioos:station:wmo:42050:1,2003-03-01T03:30:00Z,28.8425,-94.2433,2.0,312.6682975,7.820006394,-99999.0,'11133222,11111222,99999999' 
TABS,ioos:station:wmo:42050:1,2003-03-01T04:00:00Z,28.8425,-94.2433,2.0,319.3990108,5.623922119,-99999.0,'11133222,11111222,99999999' 
TABS,ioos:station:wmo:42050:1,2003-03-01T04:30:00Z,28.8425,-94.2433,2.0,324.6781176,7.108593391,-99999.0,'11133222,11111222,99999999' 
TABS,ioos:station:wmo:42050:1,2003-03-01T05:00:00Z,28.8425,-94.2433,2.0,320.2036086,8.264780699,-99999.0,'11133222,11111222,99999999' 
TABS,ioos:station:wmo:42050:1,2003-03-01T05:30:00Z,28.8425,-94.2433,2.0,324.0616731,6.644877726,-99999.0,'11133222,11111222,99999999' 
TABS,ioos:station:wmo:42050:1,2003-03-01T06:00:00Z,28.8425,-94.2433,2.0,316.8514318,7.442647378,-99999.0,'11133222,11111222,99999999' 
TABS,ioos:station:wmo:42050:1,2003-03-01T06:30:00Z,28.8425,-94.2433,2.0,314.0138656,5.339447537,-99999.0,'11133222,11111222,99999999' 
TABS,ioos:station:wmo:42050:1,2003-03-01T07:00:00Z,28.8425,-94.2433,2.0,281.793823,5.577741478,-99999.0,'11133222,11111222,99999999' 
TABS,ioos:station:wmo:42050:1,2003-03-01T07:30:00Z,28.8425,-94.2433,2.0,266.2822055,7.094927766,-99999.0,'11133222,11111222,99999999' 
TABS,ioos:station:wmo:42050:1,2003-03-01T08:00:00Z,28.8425,-94.2433,2.0,241.3066516,8.31048735,-99999.0,'11133222,11111222,99999999' 
TABS,ioos:station:wmo:42050:1,2003-03-01T08:30:00Z,28.8425,-94.2433,2.0,229.1593169,7.018846059,-99999.0,'11133222,11111222,99999999' 
TABS,ioos:station:wmo:42050:1,2003-03-01T09:00:00Z,28.8425,-94.2433,2.0,216.0939087,9.454866472,-99999.0,'11133222,11111222,99999999' 
TABS,ioos:station:wmo:42050:1,2003-03-01T09:30:00Z,28.8425,-94.2433,2.0,220.4893434,11.68931991,-99999.0,'11111222,11111222,99999999' 
TABS,ioos:station:wmo:42050:1,2003-03-01T10:00:00Z,28.8425,-94.2433,2.0,221.189343,14.47110915,-99999.0,'11111222,11111222,99999999' 
TABS,ioos:station:wmo:42050:1,2003-03-01T10:30:00Z,28.8425,-94.2433,2.0,223.6215256,15.58206982,-99999.0,'11111222,11111222,99999999' 
TABS,ioos:station:wmo:42050:1,2003-03-01T11:00:00Z,28.8425,-94.2433,2.0,211.8726682,16.96849139,-99999.0,'11111222,11111222,99999999' 
TABS,ioos:station:wmo:42050:1,2003-03-01T11:30:00Z,28.8425,-94.2433,2.0,227.6919718,21.52687855,-99999.0,'11111222,11111222,99999999' 
TABS,ioos:station:wmo:42050:1,2003-03-01T12:00:00Z,28.8425,-94.2433,2.0,235.7719344,23.64513692,-99999.0,'11111222,11111222,99999999' 
TABS,ioos:station:wmo:42050:1,2003-03-01T12:30:00Z,28.8425,-94.2433,2.0,240.6335076,22.32922077,-99999.0,'11111222,11111222,99999999' 
TABS,ioos:station:wmo:42050:1,2003-03-01T13:00:00Z,28.8425,-94.2433,2.0,247.7225911,22.3696312,-99999.0,'11111222,11111222,99999999' 
TABS,ioos:station:wmo:42050:1,2003-03-01T13:30:00Z,28.8425,-94.2433,2.0,253.2476479,21.85760508,-99999.0,'11111222,11111222,99999999' 
TABS,ioos:station:wmo:42050:1,2003-03-01T14:00:00Z,28.8425,-94.2433,2.0,256.4998288,22.01834917,-99999.0,'11111222,11111222,99999999' 
TABS,ioos:station:wmo:42050:1,2003-03-01T14:30:00Z,28.8425,-94.2433,2.0,266.599638,24.11244077,-99999.0,'11111222,11111222,99999999' 
TABS,ioos:station:wmo:42050:1,2003-03-01T15:00:00Z,28.8425,-94.2433,2.0,278.9784953,21.78693186,-99999.0,'11111222,11111222,99999999' 
TABS,ioos:station:wmo:42050:1,2003-03-01T15:30:00Z,28.8425,-94.2433,2.0,279.1028816,22.25019775,-99999.0,'11111222,11111222,99999999' 
TABS,ioos:station:wmo:42050:1,2003-03-01T16:00:00Z,28.8425,-94.2433,2.0,283.2910277,26.83883939,-99999.0,'11111222,11111222,99999999' 
TABS,ioos:station:wmo:42050:1,2003-03-01T16:30:00Z,28.8425,-94.2433,2.0,286.1138015,24.82528147,-99999.0,'11111222,11111222,99999999' 
TABS,ioos:station:wmo:42050:1,2003-03-01T17:00:00Z,28.8425,-94.2433,2.0,290.45829,23.91856392,-99999.0,'11111222,11111222,99999999' 
TABS,ioos:station:wmo:42050:1,2003-03-01T17:30:00Z,28.8425,-94.2433,2.0,288.6110093,23.72035624,-99999.0,'11111222,11111222,99999999' 
TABS,ioos:station:wmo:42050:1,2003-03-01T18:00:00Z,28.8425,-94.2433,2.0,294.1951162,24.54619522,-99999.0,'11111222,11111222,99999999' 
TABS,ioos:station:wmo:42050:1,2003-03-01T18:30:00Z,28.8425,-94.2433,2.0,292.1580963,25.08235436,-99999.0,'11111222,11111222,99999999' 
TABS,ioos:station:wmo:42050:1,2003-03-01T19:00:00Z,28.8425,-94.2433,2.0,292.8959449,23.33873176,-99999.0,'11111222,11111222,99999999' 
TABS,ioos:station:wmo:42050:1,2003-03-01T19:30:00Z,28.8425,-94.2433,2.0,300.4700676,20.88415907,-99999.0,'11111222,11111222,99999999' 
TABS,ioos:station:wmo:42050:1,2003-03-01T20:00:00Z,28.8425,-94.2433,2.0,299.6490633,19.95225551,-99999.0,'11111222,11111222,99999999' 
TABS,ioos:station:wmo:42050:1,2003-03-01T20:30:00Z,28.8425,-94.2433,2.0,297.2667054,16.80754592,-99999.0,'11111222,11111222,99999999' 
TABS,ioos:station:wmo:42050:1,2003-03-01T21:00:00Z,28.8425,-94.2433,2.0,289.7660465,16.88479197,-99999.0,'11111222,11111222,99999999' 
TABS,ioos:station:wmo:42050:1,2003-03-01T21:30:00Z,28.8425,-94.2433,2.0,288.773804,11.7765275,-99999.0,'11111222,11111222,99999999' 
TABS,ioos:station:wmo:42050:1,2003-03-01T22:00:00Z,28.8425,-94.2433,2.0,276.7270451,11.95227593,-99999.0,'11111222,11111222,99999999' 
TABS,ioos:station:wmo:42050:1,2003-03-01T22:30:00Z,28.8425,-94.2433,2.0,270.5269325,11.97050542,-99999.0,'11111222,11111222,99999999' 
TABS,ioos:station:wmo:42050:1,2003-03-01T23:00:00Z,28.8425,-94.2433,2.0,265.457594,8.586966868,-99999.0,'11133222,11111222,99999999' 
TABS,ioos:station:wmo:42050:1,2003-03-01T23:30:00Z,28.8425,-94.2433,2.0,254.1829263,11.00672976,-99999.0,'11111222,11111222,99999999' 
TABS,ioos:station:wmo:42050:1,2003-03-02T00:00:00Z,28.8425,-94.2433,2.0,258.7473726,9.737171047,-99999.0,'11133222,11111222,99999999' 
TABS,ioos:station:wmo:42050:1,2003-03-02T00:30:00Z,28.8425,-94.2433,2.0,265.2359485,12.8845062,-99999.0,'11111222,11111222,99999999' 
TABS,ioos:station:wmo:42050:1,2003-03-02T01:00:00Z,28.8425,-94.2433,2.0,255.7106483,11.54723343,-99999.0,'11111222,11111222,99999999' 
TABS,ioos:station:wmo:42050:1,2003-03-02T01:30:00Z,28.8425,-94.2433,2.0,273.5234107,11.39152755,-99999.0,'11111222,11111222,99999999' 
TABS,ioos:station:wmo:42050:1,2003-03-02T02:00:00Z,28.8425,-94.2433,2.0,284.8966633,8.402380615,-99999.0,'11133222,11111222,99999999' 
TABS,ioos:station:wmo:42050:1,2003-03-02T02:30:00Z,28.8425,-94.2433,2.0,288.4881986,10.28056905,-99999.0,'11111222,11111222,99999999' 
TABS,ioos:station:wmo:42050:1,2003-03-02T03:00:00Z,28.8425,-94.2433,2.0,306.1710477,8.522634569,-99999.0,'11133222,11111222,99999999' 
TABS,ioos:station:wmo:42050:1,2003-03-02T03:30:00Z,28.8425,-94.2433,2.0,305.9243393,8.965221693,-99999.0,'11133222,11111222,99999999' 
TABS,ioos:station:wmo:42050:1,2003-03-02T04:00:00Z,28.8425,-94.2433,2.0,300.4145927,6.79508646,-99999.0,'11133222,11111222,99999999' 
TABS,ioos:station:wmo:42050:1,2003-03-02T04:30:00Z,28.8425,-94.2433,2.0,312.1477373,8.240934413,-99999.0,'11133222,11111222,99999999' 
TABS,ioos:station:wmo:42050:1,2003-03-02T05:00:00Z,28.8425,-94.2433,2.0,315.8462302,5.268519716,-99999.0,'11133222,11111222,99999999' 
TABS,ioos:station:wmo:42050:1,2003-03-02T05:30:00Z,28.8425,-94.2433,2.0,317.8133771,5.330938004,-99999.0,'11133222,11111222,99999999' 
TABS,ioos:station:wmo:42050:1,2003-03-02T06:00:00Z,28.8425,-94.2433,2.0,316.259358,3.861735361,-99999.0,'11133222,11111222,99999999' 
TABS,ioos:station:wmo:42050:1,2003-03-02T06:30:00Z,28.8425,-94.2433,2.0,288.6840761,2.185154457,-99999.0,'11133222,11111222,99999999' 
TABS,ioos:station:wmo:42050:1,2003-03-02T07:00:00Z,28.8425,-94.2433,2.0,262.8061258,5.190857347,-99999.0,'11133222,11111222,99999999' 
TABS,ioos:station:wmo:42050:1,2003-03-02T07:30:00Z,28.8425,-94.2433,2.0,244.3026394,4.427922764,-99999.0,'11133222,11111222,99999999' 
TABS,ioos:station:wmo:42050:1,2003-03-02T08:00:00Z,28.8425,-94.2433,2.0,255.8580941,5.28000947,-99999.0,'11133222,11111222,99999999' 
TABS,ioos:station:wmo:42050:1,2003-03-02T08:30:00Z,28.8425,-94.2433,2.0,224.0425669,5.926381695,-99999.0,'11133222,11111222,99999999' 
TABS,ioos:station:wmo:42050:1,2003-03-02T09:00:00Z,28.8425,-94.2433,2.0,229.9731881,9.298107334,-99999.0,'11133222,11111222,99999999' 
TABS,ioos:station:wmo:42050:1,2003-03-02T09:30:00Z,28.8425,-94.2433,2.0,230.4508448,8.857680283,-99999.0,'11133222,11111222,99999999' 
TABS,ioos:station:wmo:42050:1,2003-03-02T10:00:00Z,28.8425,-94.2433,2.0,216.5930352,12.43014481,-99999.0,'11111222,11111222,99999999' 
TABS,ioos:station:wmo:42050:1,2003-03-02T10:30:00Z,28.8425,-94.2433,2.0,219.0054777,15.77696105,-99999.0,'11111222,11111222,99999999' 
TABS,ioos:station:wmo:42050:1,2003-03-02T11:00:00Z,28.8425,-94.2433,2.0,219.5058654,15.436337,-99999.0,'11111222,11111222,99999999' 
TABS,ioos:station:wmo:42050:1,2003-03-02T11:30:00Z,28.8425,-94.2433,2.0,217.3874947,13.71856042,-99999.0,'11111222,11111222,99999999' 
TABS,ioos:station:wmo:42050:1,2003-03-02T12:00:00Z,28.8425,-94.2433,2.0,222.2901836,20.64231092,-99999.0,'11111222,11111222,99999999' 
TABS,ioos:station:wmo:42050:1,2003-03-02T12:30:00Z,28.8425,-94.2433,2.0,221.6197375,17.63055586,-99999.0,'11111222,11111222,99999999' 
TABS,ioos:station:wmo:42050:1,2003-03-02T13:00:00Z,28.8425,-94.2433,2.0,238.0004538,19.64494082,-99999.0,'11111222,11111222,99999999' 
TABS,ioos:station:wmo:42050:1,2003-03-02T13:30:00Z,28.8425,-94.2433,2.0,238.031516,19.567565,-99999.0,'11111222,11111222,99999999' 
TABS,ioos:station:wmo:42050:1,2003-03-02T14:00:00Z,28.8425,-94.2433,2.0,251.3763392,17.31672602,-99999.0,'11111222,11111222,99999999' 
TABS,ioos:station:wmo:42050:1,2003-03-02T14:30:00Z,28.8425,-94.2433,2.0,243.7932435,14.28875432,-99999.0,'11111222,11111222,99999999' 
TABS,ioos:station:wmo:42050:1,2003-03-02T15:00:00Z,28.8425,-94.2433,2.0,257.2403259,18.06611469,-99999.0,'11111222,11111222,99999999' 
TABS,ioos:station:wmo:42050:1,2003-03-02T15:30:00Z,28.8425,-94.2433,2.0,275.0617083,18.7029249,-99999.0,'11111222,11111222,99999999' 
TABS,ioos:station:wmo:42050:1,2003-03-02T16:00:00Z,28.8425,-94.2433,2.0,266.1761869,16.34638186,-99999.0,'11111222,11111222,99999999' 
TABS,ioos:station:wmo:42050:1,2003-03-02T16:30:00Z,28.8425,-94.2433,2.0,270.0340649,17.03000294,-99999.0,'11111222,11111222,99999999' 
TABS,ioos:station:wmo:42050:1,2003-03-02T17:00:00Z,28.8425,-94.2433,2.0,278.5326624,18.93961457,-99999.0,'11111222,11111222,99999999' 
TABS,ioos:station:wmo:42050:1,2003-03-02T17:30:00Z,28.8425,-94.2433,2.0,272.8054614,16.96032134,-99999.0,'11111222,11111222,99999999' 
TABS,ioos:station:wmo:42050:1,2003-03-02T18:00:00Z,28.8425,-94.2433,2.0,276.8090573,21.3405014,-99999.0,'11111222,11111222,99999999' 
TABS,ioos:station:wmo:42050:1,2003-03-02T20:00:00Z,28.8425,-94.2433,2.0,294.9637542,14.88013777,-99999.0,'11111222,11111222,99999999' 
TABS,ioos:station:wmo:42050:1,2003-03-02T20:30:00Z,28.8425,-94.2433,2.0,282.3584497,13.83046275,-99999.0,'11111222,11111222,99999999' 
TABS,ioos:station:wmo:42050:1,2003-03-02T21:00:00Z,28.8425,-94.2433,2.0,286.6894583,16.19205361,-99999.0,'11111222,11111222,99999999' 
TABS,ioos:station:wmo:42050:1,2003-03-02T21:30:00Z,28.8425,-94.2433,2.0,277.8924887,14.63865089,-99999.0,'11111222,11111222,99999999' 
TABS,ioos:station:wmo:42050:1,2003-03-02T22:00:00Z,28.8425,-94.2433,2.0,270.0484474,11.93000419,-99999.0,'11111222,11111222,99999999' 
TABS,ioos:station:wmo:42050:1,2003-03-02T22:30:00Z,28.8425,-94.2433,2.0,249.4657723,12.08801059,-99999.0,'11111222,11111222,99999999' 
TABS,ioos:station:wmo:42050:1,2003-03-02T23:00:00Z,28.8425,-94.2433,2.0,256.8670447,12.76381213,-99999.0,'11111222,11111222,99999999' 
TABS,ioos:station:wmo:42050:1,2003-03-02T23:30:00Z,28.8425,-94.2433,2.0,234.825954,13.17577322,-99999.0,'11111222,11111222,99999999' 
TABS,ioos:station:wmo:42050:1,2003-03-03T00:00:00Z,28.8425,-94.2433,2.0,256.9837353,12.12142731,-99999.0,'11111222,11111222,99999999' 
TABS,ioos:station:wmo:42050:1,2003-03-03T00:30:00Z,28.8425,-94.2433,2.0,254.8072056,14.42410482,-99999.0,'11111222,11111222,99999999' 
TABS,ioos:station:wmo:42050:1,2003-03-03T01:00:00Z,28.8425,-94.2433,2.0,251.0382775,13.07973241,-99999.0,'11111222,11111222,99999999' 
TABS,ioos:station:wmo:42050:1,2003-03-03T01:30:00Z,28.8425,-94.2433,2.0,247.7506075,12.59795618,-99999.0,'11111222,11111222,99999999' 
TABS,ioos:station:wmo:42050:1,2003-03-03T02:00:00Z,28.8425,-94.2433,2.0,244.9781619,15.10788536,-99999.0,'11111222,11111222,99999999' 
TABS,ioos:station:wmo:42050:1,2003-03-03T02:30:00Z,28.8425,-94.2433,2.0,254.754819,14.60389332,-99999.0,'11111222,11111222,99999999' 
TABS,ioos:station:wmo:42050:1,2003-03-03T03:00:00Z,28.8425,-94.2433,2.0,259.644228,13.18475635,-99999.0,'11111222,11111222,99999999' 
TABS,ioos:station:wmo:42050:1,2003-03-03T03:30:00Z,28.8425,-94.2433,2.0,256.9224558,11.44685983,-99999.0,'11111222,11111222,99999999' 
TABS,ioos:station:wmo:42050:1,2003-03-03T04:00:00Z,28.8425,-94.2433,2.0,267.2909513,10.79205726,-99999.0,'11111222,11111222,99999999' 
TABS,ioos:station:wmo:42050:1,2003-03-03T04:30:00Z,28.8425,-94.2433,2.0,270.8794712,14.99176441,-99999.0,'11111222,11111222,99999999' 
TABS,ioos:station:wmo:42050:1,2003-03-03T05:00:00Z,28.8425,-94.2433,2.0,254.003189,12.33773075,-99999.0,'11111222,11111222,99999999' 
TABS,ioos:station:wmo:42050:1,2003-03-03T05:30:00Z,28.8425,-94.2433,2.0,279.2297215,12.53223843,-99999.0,'11111222,11111222,99999999' 
TABS,ioos:station:wmo:42050:1,2003-03-03T06:00:00Z,28.8425,-94.2433,2.0,270.7235314,10.30082036,-99999.0,'11111222,11111222,99999999' 
TABS,ioos:station:wmo:42050:1,2003-03-03T06:30:00Z,28.8425,-94.2433,2.0,290.3910035,9.729671115,-99999.0,'11133222,11111222,99999999' 
TABS,ioos:station:wmo:42050:1,2003-03-03T07:00:00Z,28.8425,-94.2433,2.0,263.6336096,12.26563084,-99999.0,'11111222,11111222,99999999' 
TABS,ioos:station:wmo:42050:1,2003-03-03T07:30:00Z,28.8425,-94.2433,2.0,256.7590901,11.70104696,-99999.0,'11111222,11111222,99999999' 
TABS,ioos:station:wmo:42050:1,2003-03-03T08:00:00Z,28.8425,-94.2433,2.0,239.772663,11.20321382,-99999.0,'11111222,11111222,99999999' 
TABS,ioos:station:wmo:42050:1,2003-03-03T08:30:00Z,28.8425,-94.2433,2.0,248.0367007,14.49172177,-99999.0,'11111222,11111222,99999999' 
TABS,ioos:station:wmo:42050:1,2003-03-03T09:00:00Z,28.8425,-94.2433,2.0,248.1181149,15.93824645,-99999.0,'11111222,11111222,99999999' 
TABS,ioos:station:wmo:42050:1,2003-03-03T09:30:00Z,28.8425,-94.2433,2.0,242.2151598,19.54318807,-99999.0,'11111222,11111222,99999999' 
TABS,ioos:station:wmo:42050:1,2003-03-03T10:00:00Z,28.8425,-94.2433,2.0,245.8396959,20.0349295,-99999.0,'11111222,11111222,99999999' 
TABS,ioos:station:wmo:42050:1,2003-03-03T10:30:00Z,28.8425,-94.2433,2.0,245.2265539,19.44988689,-99999.0,'11111222,11111222,99999999' 
TABS,ioos:station:wmo:42050:1,2003-03-03T11:00:00Z,28.8425,-94.2433,2.0,240.4654121,21.92948928,-99999.0,'11111222,11111222,99999999' 
TABS,ioos:station:wmo:42050:1,2003-03-03T11:30:00Z,28.8425,-94.2433,2.0,229.1288375,26.51461861,-99999.0,'11111222,11111222,99999999' 
TABS,ioos:station:wmo:42050:1,2003-03-03T12:00:00Z,28.8425,-94.2433,2.0,223.840269,25.51056448,-99999.0,'11111222,11111222,99999999' 
TABS,ioos:station:wmo:42050:1,2003-03-03T12:30:00Z,28.8425,-94.2433,2.0,231.8795844,26.85839347,-99999.0,'11111222,11111222,99999999' 
TABS,ioos:station:wmo:42050:1,2003-03-03T13:00:00Z,28.8425,-94.2433,2.0,239.3148527,28.88413405,-99999.0,'11111222,11111222,99999999' 
TABS,ioos:station:wmo:42050:1,2003-03-03T13:30:00Z,28.8425,-94.2433,2.0,241.9908124,31.23884281,-99999.0,'11111222,11111222,99999999' 
TABS,ioos:station:wmo:42050:1,2003-03-03T14:00:00Z,28.8425,-94.2433,2.0,245.2705433,26.9405605,-99999.0,'11111222,11111222,99999999' 
TABS,ioos:station:wmo:42050:1,2003-03-03T14:30:00Z,28.8425,-94.2433,2.0,251.2060557,23.74600809,-99999.0,'11111222,11111222,99999999' 
TABS,ioos:station:wmo:42050:1,2003-03-03T15:00:00Z,28.8425,-94.2433,2.0,249.9173993,23.21122358,-99999.0,'11111222,11111222,99999999' 
TABS,ioos:station:wmo:42050:1,2003-03-03T15:30:00Z,28.8425,-94.2433,2.0,258.8175853,24.59694697,-99999.0,'11111222,11111222,99999999' 
TABS,ioos:station:wmo:42050:1,2003-03-03T16:00:00Z,28.8425,-94.2433,2.0,258.0877352,26.69484033,-99999.0,'11111222,11111222,99999999' 
TABS,ioos:station:wmo:42050:1,2003-03-03T16:30:00Z,28.8425,-94.2433,2.0,270.8438506,27.85301779,-99999.0,'11111222,11111222,99999999' 
TABS,ioos:station:wmo:42050:1,2003-03-03T17:00:00Z,28.8425,-94.2433,2.0,275.1295525,23.04226768,-99999.0,'11111222,11111222,99999999' 
TABS,ioos:station:wmo:42050:1,2003-03-03T17:30:00Z,28.8425,-94.2433,2.0,266.0567523,25.15954888,-99999.0,'11111222,11111222,99999999' 
TABS,ioos:station:wmo:42050:1,2003-03-03T18:00:00Z,28.8425,-94.2433,2.0,267.5701824,26.89417223,-99999.0,'11111222,11111222,99999999' 
TABS,ioos:station:wmo:42050:1,2003-03-03T18:30:00Z,28.8425,-94.2433,2.0,263.2910925,25.08172642,-99999.0,'11111222,11111222,99999999' 
TABS,ioos:station:wmo:42050:1,2003-03-03T19:00:00Z,28.8425,-94.2433,2.0,264.1957392,26.89788096,-99999.0,'11111222,11111222,99999999' 
TABS,ioos:station:wmo:42050:1,2003-03-03T19:30:00Z,28.8425,-94.2433,2.0,259.2268671,27.82029655,-99999.0,'11111222,11111222,99999999' 
TABS,ioos:station:wmo:42050:1,2003-03-03T20:00:00Z,28.8425,-94.2433,2.0,265.0603751,29.26868634,-99999.0,'11111222,11111222,99999999' 
TABS,ioos:station:wmo:42050:1,2003-03-03T20:30:00Z,28.8425,-94.2433,2.0,263.3058599,27.02421322,-99999.0,'11111222,11111222,99999999' 
TABS,ioos:station:wmo:42050:1,2003-03-03T21:00:00Z,28.8425,-94.2433,2.0,257.6806248,27.84104165,-99999.0,'11111222,11111222,99999999' 
TABS,ioos:station:wmo:42050:1,2003-03-03T21:30:00Z,28.8425,-94.2433,2.0,242.5566939,30.35594999,-99999.0,'11111222,11111222,99999999' 
TABS,ioos:station:wmo:42050:1,2003-03-03T22:00:00Z,28.8425,-94.2433,2.0,237.086084,33.97295984,-99999.0,'11111222,11111222,99999999' 
TABS,ioos:station:wmo:42050:1,2003-03-03T22:30:00Z,28.8425,-94.2433,2.0,238.2925578,35.42772925,-99999.0,'11111222,11111222,99999999' 
TABS,ioos:station:wmo:42050:1,2003-03-03T23:00:00Z,28.8425,-94.2433,2.0,235.1872503,38.93910374,-99999.0,'11111222,11111222,99999999' 
TABS,ioos:station:wmo:42050:1,2003-03-03T23:30:00Z,28.8425,-94.2433,2.0,232.9641206,43.58218214,-99999.0,'11111222,11111222,99999999' 
TABS,ioos:station:wmo:42050:1,2003-03-04T00:00:00Z,28.8425,-94.2433,2.0,240.1991215,43.42210036,-99999.0,'11111222,11111222,99999999' 
TABS,ioos:station:wmo:42050:1,2003-03-04T00:30:00Z,28.8425,-94.2433,2.0,243.3884258,44.40385231,-99999.0,'11111222,11111222,99999999' 
TABS,ioos:station:wmo:42050:1,2003-03-04T01:00:00Z,28.8425,-94.2433,2.0,246.1519747,45.08958305,-99999.0,'11111222,11111222,99999999' 
TABS,ioos:station:wmo:42050:1,2003-03-04T01:30:00Z,28.8425,-94.2433,2.0,257.1912632,37.34936144,-99999.0,'11111222,11111222,99999999' 
TABS,ioos:station:wmo:42050:1,2003-03-04T02:00:00Z,28.8425,-94.2433,2.0,253.4442018,35.86687608,-99999.0,'11111222,11111222,99999999' 
TABS,ioos:station:wmo:42050:1,2003-03-04T02:30:00Z,28.8425,-94.2433,2.0,269.9095766,31.83003927,-99999.0,'11111222,11111222,99999999' 
TABS,ioos:station:wmo:42050:1,2003-03-04T03:00:00Z,28.8425,-94.2433,2.0,273.7951713,33.54354334,-99999.0,'11111222,11111222,99999999' 
TABS,ioos:station:wmo:42050:1,2003-03-04T03:30:00Z,28.8425,-94.2433,2.0,267.4140755,25.93640299,-99999.0,'11111222,11111222,99999999' 
TABS,ioos:station:wmo:42050:1,2003-03-04T04:00:00Z,28.8425,-94.2433,2.0,278.2092486,26.75411744,-99999.0,'11111222,11111222,99999999' 
TABS,ioos:station:wmo:42050:1,2003-03-04T04:30:00Z,28.8425,-94.2433,2.0,272.1231836,25.37741516,-99999.0,'11111222,11111222,99999999' 
TABS,ioos:station:wmo:42050:1,2003-03-04T05:00:00Z,28.8425,-94.2433,2.0,272.760966,28.65325112,-99999.0,'11111222,11111222,99999999' 
TABS,ioos:station:wmo:42050:1,2003-03-04T05:30:00Z,28.8425,-94.2433,2.0,267.5472194,29.44696928,-99999.0,'11111222,11111222,99999999' 
TABS,ioos:station:wmo:42050:1,2003-03-04T06:00:00Z,28.8425,-94.2433,2.0,261.591813,26.26225428,-99999.0,'11111222,11111222,99999999' 
TABS,ioos:station:wmo:42050:1,2003-03-04T06:30:00Z,28.8425,-94.2433,2.0,265.6958187,26.3843988,-99999.0,'11111222,11111222,99999999' 
TABS,ioos:station:wmo:42050:1,2003-03-04T07:00:00Z,28.8425,-94.2433,2.0,266.9867986,28.72970936,-99999.0,'11111222,11111222,99999999' 
TABS,ioos:station:wmo:42050:1,2003-03-04T07:30:00Z,28.8425,-94.2433,2.0,261.5330817,28.66236034,-99999.0,'11111222,11111222,99999999' 
TABS,ioos:station:wmo:42050:1,2003-03-04T08:00:00Z,28.8425,-94.2433,2.0,259.7084213,30.00266655,-99999.0,'11111222,11111222,99999999' 
TABS,ioos:station:wmo:42050:1,2003-03-04T08:30:00Z,28.8425,-94.2433,2.0,255.0808284,26.2964066,-99999.0,'11111222,11111222,99999999' 
TABS,ioos:station:wmo:42050:1,2003-03-04T09:00:00Z,28.8425,-94.2433,2.0,244.8787848,29.63284158,-99999.0,'11111222,11111222,99999999' 
TABS,ioos:station:wmo:42050:1,2003-03-04T09:30:00Z,28.8425,-94.2433,2.0,240.7169549,29.52246772,-99999.0,'11111222,11111222,99999999' 
TABS,ioos:station:wmo:42050:1,2003-03-04T10:00:00Z,28.8425,-94.2433,2.0,231.6507648,30.22006784,-99999.0,'11111222,11111222,99999999' 
TABS,ioos:station:wmo:42050:1,2003-03-04T10:30:00Z,28.8425,-94.2433,2.0,236.1351593,30.9746025,-99999.0,'11111222,11111222,99999999' 
TABS,ioos:station:wmo:42050:1,2003-03-04T11:00:00Z,28.8425,-94.2433,2.0,235.2810537,33.99195787,-99999.0,'11111222,11111222,99999999' 
TABS,ioos:station:wmo:42050:1,2003-03-05T20:00:00Z,28.8425,-94.2433,2.0,335.0295196,9.00142211,-99999.0,'11133222,11111222,99999999' 
TABS,ioos:station:wmo:42050:1,2003-03-05T20:30:00Z,28.8425,-94.2433,2.0,335.9885525,25.99997885,-99999.0,'11111222,11111222,99999999' 
TABS,ioos:station:wmo:42050:1,2003-03-05T21:00:00Z,28.8425,-94.2433,2.0,331.9898076,24.99824994,-99999.0,'11111222,11111222,99999999' 
TABS,ioos:station:wmo:42050:1,2003-03-05T21:30:00Z,28.8425,-94.2433,2.0,333.0051232,28.00083213,-99999.0,'11111222,11111222,99999999' 
TABS,ioos:station:wmo:42050:1,2003-03-06T08:00:00Z,28.8425,-94.2433,2.0,260.1294877,17.09299564,-99999.0,'11111222,11111222,99999999' 
TABS,ioos:station:wmo:42050:1,2003-03-06T08:30:00Z,28.8425,-94.2433,2.0,247.2172266,16.26929624,-99999.0,'11111222,11111222,99999999' 
TABS,ioos:station:wmo:42050:1,2003-03-06T09:00:00Z,28.8425,-94.2433,2.0,245.7632068,18.05103044,-99999.0,'11111222,11111222,99999999' 
TABS,ioos:station:wmo:42050:1,2003-03-06T09:30:00Z,28.8425,-94.2433,2.0,244.7487539,17.15962704,-99999.0,'11111222,11111222,99999999' 
TABS,ioos:station:wmo:42050:1,2003-03-06T10:00:00Z,28.8425,-94.2433,2.0,249.9322134,15.09651615,-99999.0,'11111222,11111222,99999999' 
TABS,ioos:station:wmo:42050:1,2003-03-06T10:30:00Z,28.8425,-94.2433,2.0,242.5425966,16.37447404,-99999.0,'11111222,11111222,99999999' 
TABS,ioos:station:wmo:42050:1,2003-03-06T11:00:00Z,28.8425,-94.2433,2.0,243.4789938,17.31164348,-99999.0,'11111222,11111222,99999999' 
TABS,ioos:station:wmo:42050:1,2003-03-06T11:30:00Z,28.8425,-94.2433,2.0,236.894902,19.00502039,-99999.0,'11111222,11111222,99999999' 
TABS,ioos:station:wmo:42050:1,2003-03-06T12:00:00Z,28.8425,-94.2433,2.0,240.2700238,18.63249849,-99999.0,'11111222,11111222,99999999' 